This is the latest recevied weather packets stored in our database for station/object DL2GKM-6. If no packets are shown the sender has not sent any weather packets the latest 1 day(s).
| Time | Temp. | Humidity | Pressure | Rain* | Wind** | Luminosity | Snow |
|---|---|---|---|---|---|---|---|
| 1778001691 | 14.44° C | 87% | 1006.8 hPa | 128.52 mm | 0.45 m/s, 342° | - | - |
| 1778001401 | 14.44° C | 86% | 1006.8 hPa | 128.52 mm | 1.34 m/s, 282° | - | - |
| 1778001154 | 15° C | 85% | 1006.8 hPa | 128.52 mm | 0.89 m/s, 14° | - | - |
| 1778000906 | 15° C | 83% | 1006.8 hPa | 128.52 mm | 1.34 m/s, 18° | - | - |
| 1778000634 | 15.56° C | 82% | 1007.1 hPa | 128.52 mm | 2.24 m/s, 339° | - | - |
| 1778000356 | 15.56° C | 80% | 1006.9 hPa | 128.52 mm | 3.58 m/s, 312° | - | - |
| 1778000071 | 15.56° C | 80% | 1006.8 hPa | 128.52 mm | 1.79 m/s, 342° | - | - |
| 1777999796 | 16.11° C | 79% | 1006.8 hPa | 128.52 mm | 2.24 m/s, 340° | - | - |
| 1777999544 | 16.11° C | 79% | 1006.5 hPa | 128.52 mm | 2.68 m/s, 31° | - | - |
| 1777999261 | 16.11° C | 77% | 1006.5 hPa | 128.52 mm | 2.24 m/s, 309° | - | - |
| 1777998991 | 16.11° C | 77% | 1006.5 hPa | 128.52 mm | 1.34 m/s, 1° | - | - |
| 1777998706 | 16.11° C | 77% | 1006.4 hPa | 128.52 mm | 2.68 m/s, 359° | - | - |
| 1777998423 | 16.11° C | 78% | 1006.4 hPa | 128.52 mm | 0.89 m/s, 302° | - | - |
| 1777998151 | 16.11° C | 78% | 1006.3 hPa | 128.52 mm | 0 m/s | - | - |
| 1777997856 | 16.11° C | 78% | 1006.3 hPa | 128.52 mm | 1.34 m/s, 17° | - | - |
| 1777997586 | 16.11° C | 78% | 1006.3 hPa | 128.52 mm | 1.79 m/s, 8° | - | - |
| 1777997341 | 16.11° C | 78% | 1006.3 hPa | 128.52 mm | 0.45 m/s, 319° | - | - |
| 1777997086 | 16.11° C | 77% | 1006.3 hPa | 128.52 mm | 0 m/s | - | - |
| 1777996791 | 16.11° C | 79% | 1006.3 hPa | 128.52 mm | 0 m/s | - | - |
| 1777996514 | 16.11° C | 80% | 1006.3 hPa | 128.52 mm | 0 m/s | - | - |
| 1777996236 | 16.11° C | 79% | 1006.4 hPa | 128.52 mm | 1.34 m/s, 347° | - | - |
| 1777995971 | 16.11° C | 80% | 1006.4 hPa | 128.52 mm | 1.34 m/s, 23° | - | - |
| 1777995714 | 16.11° C | 80% | 1006.4 hPa | 128.52 mm | 0 m/s | - | - |
| 1777995471 | 16.11° C | 81% | 1006.4 hPa | 128.52 mm | 1.34 m/s, 277° | - | - |
| 1777995221 | 16.11° C | 81% | 1006.4 hPa | 128.52 mm | 0.45 m/s, 342° | - | - |
* Rain latest 24 hours (hover to see other rain measurements)
** Current wind speed in m/s (hover to see current wind gust speed)